星链-5919 (STARLINK-5919 )

导读

STARLINK-5919是美国SpaceX公司星链(Starlink)星座的第二-generation卫星,于2023年3月17日发射升空,运行在近地轨道。作为全球卫星互联网组网的重要组成,它依托星链低轨星座的规模化部署,为全球偏远、基础设施匮乏地区提供高速低延迟宽带互联网服务,可支持视频通话、在线互动等应用,支撑星链网络持续扩容与服务能力升级。

基本信息
目录编号:
55927
目录名称:
STARLINK-5919
国际标识:
2023-037P
轨道中心:
EARTH
卫星名称:
星链-5919
卫星全名:
星链-5919 (STARLINK-5919 )
卫星状态:
在轨 (已飞行1275 天)
发射日期:
2023-03-17 UTC
国别 :
美国 (US)
星等 :
--
该卫星已列入 空间交会检测服务 Space Conjunction Data Service (SCDS) ,当前飞行风险评估等级: 无高风险
轨道信息
数据来源 国际轨道数据
星历时间: 2026-09-12T10:32:37+0800
13小时前
查看轨道信息
半长轴: 6950.193km
偏心率: 0.0002609
轨道倾角: 70.000°
近地点辐角 268.915°
升交点赤经 194.309°
平近点角 91.171°
近地点: 570.242km
远地点: 573.87km
周期: 96.107分钟
每日圈数: 14.983302
详细信息
固有亮度:
5
最大亮度:
2.5
卫星平台:
Starlink v1.5
覆盖范围:
全球
运营商:
太空探索技术公司
运营商所在国:
美国
制造商(研发单位):
太空探索技术公司
制造商所在国:
美国
使用方式:
暂无
卫星简介
星链(Starlink)计划是由太空探索技术公司(SpaceX)提出的一个巨型低轨卫星互联网星座项目,计划在2019年至2024年间在太空搭建由约1.2万颗卫星组成的“星链”网络,其中1584颗将部署在地球上空550千米处的近地轨道,并从2020年开始工作。该卫星仍在工作。
2D轨道图
3D轨道图
轨道高度分析图
轨道倾角分析图
轨道综合分析图
查看轨道综合分析图
交会数据列表
事件ID 空间交会对象 最接近时刻(TCA) 交会距离 交会风险概率(CRP) 交会风险指数(CRI) 操作
CDM_260914-075705-592706-324822
2026-09-14T
07:57:18+0000
0.983 km
远距离
1.559354E-5 中风险 0.59
CDM_260913-181003-609005-592722
2026-09-13T
18:10:56+0000
2.202 km
极远距离
1.9808E-6 低风险 0.41
CDM_260914-070905-592706-324823
2026-09-14T
07:09:13+0000
1.870 km
极远距离
1.972601E-6 低风险 0.41
CDM_260914-110604-488005-592722
OBJECT B (44880)
2026-09-14T
11:06:57+0000
2.365 km
极远距离
1.939948E-6 低风险 0.41
与全量物体交会距离演化趋势
与全量物体交会风险概率演化趋势